STARLINK-35417, 66335

Orbit data source: Space-Track

STARLINK-35417, 66335 is a payload satellite owned by SpaceX/Seattle (US) in LEO that was launched on Thu, 06 Nov 2025 UTC via an FALCON 9 launch vehicle from the Air Force Eastern Test Range (AFETR). Payload-class satellites include a variety of spacecraft equipped with specific instruments for various scientific and technological missions. These include communications satellites like Starlink; space stations such as the ISS; scientific satellites like the Hubble; Earth observation satellites from companies like Planet Labs, Umbra, and HawkEye 360; GPS; miniature CubeSats for education and research; and military/defense satellites.

Loading next visibility...
Identifier
66335, 2025-253S
Orbit
LEO
Country
Flag of USUS
Related business
Manufacturer
SpaceX/Seattle
Mission
Operational Commercial Communications
Bus & Motor
STARLINK V2MO, Unknown motor
Mass
575 kg wet, ~530 kg dry
Launch date (UTC)
2025-11-06 (7 months ago)
Launch vehicle
FALCON 9
Launch site
Air Force Eastern Test Range (AFETR)
Object type
Payload
Rocket body
Debris
Shape & HBR
Box + 2 Pan, 17.7 m
Radar Cross Section
36.964 m², Large (>1 m²)

Expand to show TLE details & history
Last TLE update: 16 hours ago

TLE from 16 hours ago
0 STARLINK-35417
1 66335U 25253S   26170.49363314 -.00004833  00000-0 -16609-3 0  9994
2 66335  43.0009 357.6115 0001127 266.1007  93.9716 15.27606228 35813
Epoch: 2026-06-19T11:50Z
TLE epoch observation values (Epoch: 2026-06-19T11:50:49.903Z)
Latitude
Longitude
-87.81824°
Altitude
482.8 km
Speed
7.626 km/s
True Right ascension
23h 50m 26s
True Declination
0° 00' 00"
Sunlit
Object was in daylight at epoch
Visualization orbit readout
Latitude
Unknown
Longitude
Unknown
Altitude
Unknown
Speed
Unknown
Apparent Right ascension
Unknown
Apparent Declination
Unknown
Sunlit
N/A
Visualization observer readout
Local Sidereal Time
14:36:56
Azimuth
Unknown
Elevation
Unknown
Doppler factor
Unknown
Orbital elements
Apogee altitude
485.689 km
Perigee altitude
484.142 km
Semi-major axis
6,863.053 km
Eccentricity
0.00011
Inclination
43.0009°
RAAN
357.6115°
Arg. of periapsis
266.1007°
True anomaly
93.98448°
Mean anomaly
93.9716°
Eccentric anomaly
93.97804°
Mean motion
3.8174 °/min
Orbital period
94.31 mins
BSTAR
-0.00016609
Loading maneuver chart data...
Computing Atmospheric mass density...
Loading historical data...
Loading historical data...
Loading historical data...
Loading historical data...
Loading historical data...
Loading historical data...
Loading historical data...

Documentation

Showing up to 5 results
|